Time,TemperatureF,DewpointF,PressureIn,WindDirection,WindDirectionDegrees,WindSpeedMPH,WindSpeedGustMPH,Humidity,HourlyPrecipIn,Conditions,Clouds,dailyrainin,SoftwareType,DateUTC
2013-02-05 00:06:00,57.3,52.8,29.86,SSE,161,3.0,3.0,85,0.00,,,0.00,Wunderground v.1.15,2013-02-05 06:06:00,
2013-02-05 00:11:00,57.6,52.8,29.86,South,179,3.0,3.0,84,0.00,,,0.00,Wunderground v.1.15,2013-02-05 06:11:00,
2013-02-05 00:16:00,57.8,53.0,29.86,South,183,2.0,2.0,84,0.00,,,0.00,Wunderground v.1.15,2013-02-05 06:16:00,
2013-02-05 00:21:00,57.8,53.0,29.86,SSW,202,2.0,2.0,84,0.00,,,0.00,Wunderground v.1.15,2013-02-05 06:21:00,
2013-02-05 00:26:00,58.0,52.5,29.87,West,272,3.0,6.0,82,0.00,,,0.00,Wunderground v.1.15,2013-02-05 06:26:00,
2013-02-05 00:31:00,57.0,51.6,29.87,West,273,5.0,6.0,82,0.00,,,0.00,Wunderground v.1.15,2013-02-05 06:31:00,
2013-02-05 00:36:00,56.7,52.2,29.87,West,272,5.0,5.0,85,0.00,,,0.00,Wunderground v.1.15,2013-02-05 06:36:00,
2013-02-05 00:41:00,56.4,51.3,29.87,West,276,4.0,5.0,83,0.00,,,0.00,Wunderground v.1.15,2013-02-05 06:41:00,
2013-02-05 00:51:00,55.4,51.3,29.87,West,279,2.0,3.0,86,0.00,,,0.00,Wunderground v.1.15,2013-02-05 06:51:00,
2013-02-05 00:56:00,55.3,51.5,29.87,West,279,1.0,1.0,87,0.00,,,0.00,Wunderground v.1.15,2013-02-05 06:56:00,
2013-02-05 01:01:00,55.0,50.6,29.87,West,279,0.0,4.0,85,0.00,,,0.00,Wunderground v.1.15,2013-02-05 07:01:00,
2013-02-05 01:06:00,54.4,50.6,29.87,West,279,0.0,4.0,87,0.00,,,0.00,Wunderground v.1.15,2013-02-05 07:06:00,
2013-02-05 01:11:00,54.7,51.8,29.87,South,189,1.0,4.0,90,0.00,,,0.00,Wunderground v.1.15,2013-02-05 07:11:00,
2013-02-05 01:16:00,55.3,51.5,29.87,South,189,2.0,2.0,87,0.00,,,0.00,Wunderground v.1.15,2013-02-05 07:16:00,
2013-02-05 01:26:00,54.4,51.2,29.88,SE,125,1.0,4.0,89,0.00,,,0.00,Wunderground v.1.15,2013-02-05 07:26:00,
2013-02-05 01:31:00,53.8,50.0,29.88,SE,130,1.0,4.0,87,0.00,,,0.00,Wunderground v.1.15,2013-02-05 07:31:00,
2013-02-05 01:36:00,53.2,49.7,29.88,SSE,164,3.0,4.0,88,0.00,,,0.00,Wunderground v.1.15,2013-02-05 07:36:00,
2013-02-05 01:41:00,53.3,50.1,29.88,SSE,153,4.0,4.0,89,0.00,,,0.00,Wunderground v.1.15,2013-02-05 07:41:00,
2013-02-05 01:46:00,53.2,50.0,29.88,South,180,4.0,5.0,89,0.00,,,0.00,Wunderground v.1.15,2013-02-05 07:46:00,
2013-02-05 01:56:00,54.9,51.4,29.88,SSW,201,5.0,5.0,88,0.00,,,0.00,Wunderground v.1.15,2013-02-05 07:56:00,
2013-02-05 02:01:00,55.0,51.2,29.88,South,190,6.0,6.0,87,0.00,,,0.00,Wunderground v.1.15,2013-02-05 08:01:00,
2013-02-05 02:06:00,55.4,51.6,29.88,South,182,6.0,7.0,87,0.00,,,0.00,Wunderground v.1.15,2013-02-05 08:06:00,
2013-02-05 02:11:00,55.5,51.7,29.88,South,182,6.0,7.0,87,0.00,,,0.00,Wunderground v.1.15,2013-02-05 08:11:00,
2013-02-05 02:16:00,55.5,51.4,29.88,South,186,6.0,6.0,86,0.00,,,0.00,Wunderground v.1.15,2013-02-05 08:16:00,
2013-02-05 02:21:00,55.5,51.7,29.88,SSW,195,6.0,6.0,87,0.00,,,0.00,Wunderground v.1.15,2013-02-05 08:21:00,
2013-02-05 02:31:00,56.1,52.3,29.88,SSW,210,4.0,5.0,87,0.00,,,0.00,Wunderground v.1.15,2013-02-05 08:31:00,
2013-02-05 02:36:00,56.5,52.4,29.88,SSW,213,5.0,6.0,86,0.00,,,0.00,Wunderground v.1.15,2013-02-05 08:36:00,
2013-02-05 02:41:00,56.6,52.5,29.88,SW,216,6.0,8.0,86,0.00,,,0.00,Wunderground v.1.15,2013-02-05 08:41:00,
2013-02-05 02:46:00,56.6,52.1,29.88,SSW,210,7.0,9.0,85,0.00,,,0.00,Wunderground v.1.15,2013-02-05 08:46:00,
2013-02-05 02:51:00,56.7,51.9,29.88,SSW,207,8.0,9.0,84,0.00,,,0.00,Wunderground v.1.15,2013-02-05 08:51:00,
2013-02-05 02:56:00,56.4,51.9,29.88,SSW,206,8.0,8.0,85,0.00,,,0.00,Wunderground v.1.15,2013-02-05 08:56:00,
2013-02-05 03:01:00,56.0,51.6,29.88,SSW,210,8.0,8.0,85,0.00,,,0.00,Wunderground v.1.15,2013-02-05 09:01:00,
2013-02-05 03:06:00,55.9,52.1,29.88,SW,224,7.0,8.0,87,0.00,,,0.00,Wunderground v.1.15,2013-02-05 09:06:00,
2013-02-05 03:11:00,56.4,51.9,29.88,WSW,246,7.0,8.0,85,0.00,,,0.00,Wunderground v.1.15,2013-02-05 09:11:00,
2013-02-05 03:16:00,55.9,51.5,29.88,West,263,7.0,7.0,85,0.00,,,0.00,Wunderground v.1.15,2013-02-05 09:16:00,
2013-02-05 03:21:00,55.6,51.5,29.88,SW,234,7.0,8.0,86,0.00,,,0.00,Wunderground v.1.15,2013-02-05 09:21:00,
2013-02-05 03:31:00,56.3,51.5,29.88,WSW,242,8.0,9.0,84,0.00,,,0.00,Wunderground v.1.15,2013-02-05 09:31:00,
2013-02-05 03:36:00,55.6,51.5,29.88,WSW,243,8.0,8.0,86,0.00,,,0.00,Wunderground v.1.15,2013-02-05 09:36:00,
2013-02-05 03:41:00,55.3,51.2,29.88,WSW,242,8.0,8.0,86,0.00,,,0.00,Wunderground v.1.15,2013-02-05 09:41:00,
2013-02-05 03:46:00,55.0,50.9,29.88,WSW,241,8.0,8.0,86,0.00,,,0.00,Wunderground v.1.15,2013-02-05 09:46:00,
2013-02-05 03:51:00,54.8,51.0,29.88,WSW,241,7.0,8.0,87,0.00,,,0.00,Wunderground v.1.15,2013-02-05 09:51:00,
2013-02-05 03:56:00,54.8,51.0,29.88,WSW,246,7.0,7.0,87,0.00,,,0.00,Wunderground v.1.15,2013-02-05 09:56:00,
2013-02-05 04:06:00,53.6,50.1,29.88,West,272,7.0,7.0,88,0.00,,,0.00,Wunderground v.1.15,2013-02-05 10:06:00,
2013-02-05 04:11:00,53.7,50.5,29.88,WSW,255,7.0,7.0,89,0.00,,,0.00,Wunderground v.1.15,2013-02-05 10:11:00,
2013-02-05 04:16:00,53.7,50.2,29.88,WSW,257,7.0,7.0,88,0.00,,,0.00,Wunderground v.1.15,2013-02-05 10:16:00,
2013-02-05 04:21:00,53.6,49.8,29.89,West,260,7.0,7.0,87,0.00,,,0.00,Wunderground v.1.15,2013-02-05 10:21:00,
2013-02-05 04:26:00,53.5,49.4,29.89,West,264,6.0,6.0,86,0.00,,,0.00,Wunderground v.1.15,2013-02-05 10:26:00,
2013-02-05 04:36:00,53.7,48.0,29.89,West,267,7.0,8.0,81,0.00,,,0.00,Wunderground v.1.15,2013-02-05 10:36:00,
2013-02-05 04:41:00,53.6,47.6,29.89,West,269,8.0,8.0,80,0.00,,,0.00,Wunderground v.1.15,2013-02-05 10:41:00,
2013-02-05 04:46:00,53.2,46.9,29.89,West,269,8.0,8.0,79,0.00,,,0.00,Wunderground v.1.15,2013-02-05 10:46:00,
2013-02-05 04:56:00,51.9,46.6,29.89,West,271,7.0,7.0,82,0.00,,,0.00,Wunderground v.1.15,2013-02-05 10:56:00,
2013-02-05 05:01:00,51.6,46.3,29.89,West,274,7.0,7.0,82,0.00,,,0.00,Wunderground v.1.15,2013-02-05 11:01:00,
2013-02-05 05:06:00,51.4,46.7,29.89,West,277,6.0,6.0,84,0.00,,,0.00,Wunderground v.1.15,2013-02-05 11:06:00,
2013-02-05 05:16:00,49.9,45.9,29.90,West,277,6.0,6.0,86,0.00,,,0.00,Wunderground v.1.15,2013-02-05 11:16:00,
2013-02-05 05:21:00,50.0,45.4,29.90,West,277,5.0,6.0,84,0.00,,,0.00,Wunderground v.1.15,2013-02-05 11:21:00,
2013-02-05 05:26:00,50.2,44.6,29.90,West,277,5.0,5.0,81,0.00,,,0.00,Wunderground v.1.15,2013-02-05 11:26:00,
2013-02-05 05:31:00,50.7,44.8,29.90,West,273,5.0,7.0,80,0.00,,,0.00,Wunderground v.1.15,2013-02-05 11:31:00,
2013-02-05 05:36:00,50.9,44.6,29.90,West,277,7.0,9.0,79,0.00,,,0.00,Wunderground v.1.15,2013-02-05 11:36:00,
2013-02-05 05:41:00,50.9,44.3,29.90,West,272,8.0,9.0,78,0.00,,,0.00,Wunderground v.1.15,2013-02-05 11:41:00,
2013-02-05 05:51:00,50.7,43.8,29.90,West,272,8.0,9.0,77,0.00,,,0.00,Wunderground v.1.15,2013-02-05 11:51:00,
2013-02-05 05:56:00,50.9,43.9,29.90,West,269,9.0,10.0,77,0.00,,,0.00,Wunderground v.1.15,2013-02-05 11:56:00,
2013-02-05 06:01:00,50.7,43.8,29.90,West,269,9.0,10.0,77,0.00,,,0.00,Wunderground v.1.15,2013-02-05 12:01:00,
2013-02-05 06:06:00,50.1,42.8,29.91,West,274,9.0,9.0,76,0.00,,,0.00,Wunderground v.1.15,2013-02-05 12:06:00,
2013-02-05 06:11:00,49.3,42.1,29.91,West,269,9.0,10.0,76,0.00,,,0.00,Wunderground v.1.15,2013-02-05 12:11:00,
2013-02-05 06:16:00,49.1,41.5,29.91,West,273,9.0,10.0,75,0.00,,,0.00,Wunderground v.1.15,2013-02-05 12:16:00,
2013-02-05 06:21:00,48.7,41.1,29.91,West,274,10.0,10.0,75,0.00,,,0.00,Wunderground v.1.15,2013-02-05 12:21:00,
2013-02-05 06:26:00,48.6,40.7,29.91,West,272,10.0,10.0,74,0.00,,,0.00,Wunderground v.1.15,2013-02-05 12:26:00,
2013-02-05 06:31:00,48.1,40.5,29.92,West,269,10.0,10.0,75,0.00,,,0.00,Wunderground v.1.15,2013-02-05 12:31:00,
2013-02-05 06:36:00,47.7,40.5,29.92,West,269,10.0,11.0,76,0.00,,,0.00,Wunderground v.1.15,2013-02-05 12:36:00,
2013-02-05 06:41:00,47.3,40.1,29.92,West,277,10.0,11.0,76,0.00,,,0.00,Wunderground v.1.15,2013-02-05 12:41:00,
2013-02-05 06:46:00,47.2,40.4,29.92,West,265,10.0,11.0,77,0.00,,,0.00,Wunderground v.1.15,2013-02-05 12:46:00,
2013-02-05 06:56:00,47.0,40.2,29.92,West,272,11.0,11.0,77,0.00,,,0.00,Wunderground v.1.15,2013-02-05 12:56:00,
2013-02-05 07:06:00,46.7,40.2,29.93,West,274,11.0,11.0,78,0.00,,,0.00,Wunderground v.1.15,2013-02-05 13:06:00,
2013-02-05 07:11:00,46.8,40.3,29.93,West,276,11.0,11.0,78,0.00,,,0.00,Wunderground v.1.15,2013-02-05 13:11:00,
2013-02-05 07:16:00,46.9,40.4,29.93,West,271,11.0,13.0,78,0.00,,,0.00,Wunderground v.1.15,2013-02-05 13:16:00,
2013-02-05 07:26:00,46.9,40.4,29.93,West,274,11.0,12.0,78,0.00,,,0.00,Wunderground v.1.15,2013-02-05 13:26:00,
2013-02-05 07:31:00,47.0,40.5,29.93,West,274,11.0,12.0,78,0.00,,,0.00,Wunderground v.1.15,2013-02-05 13:31:00,
2013-02-05 07:36:00,47.1,40.6,29.93,West,277,12.0,13.0,78,0.00,,,0.00,Wunderground v.1.15,2013-02-05 13:36:00,
2013-02-05 07:41:00,47.3,40.8,29.94,West,277,13.0,13.0,78,0.00,,,0.00,Wunderground v.1.15,2013-02-05 13:41:00,
2013-02-05 07:46:00,47.7,41.2,29.94,West,281,13.0,13.0,78,0.00,,,0.00,Wunderground v.1.15,2013-02-05 13:46:00,
2013-02-05 07:51:00,48.1,41.6,29.94,WNW,282,12.0,13.0,78,0.00,,,0.00,Wunderground v.1.15,2013-02-05 13:51:00,
2013-02-05 07:56:00,48.4,41.9,29.94,West,279,12.0,14.0,78,0.00,,,0.00,Wunderground v.1.15,2013-02-05 13:56:00,
2013-02-05 08:06:00,49.1,42.2,29.95,West,276,13.0,13.0,77,0.00,,,0.00,Wunderground v.1.15,2013-02-05 14:06:00,
2013-02-05 08:11:00,49.4,42.1,29.95,West,273,12.0,13.0,76,0.00,,,0.00,Wunderground v.1.15,2013-02-05 14:11:00,
2013-02-05 08:16:00,49.7,42.4,29.95,West,278,12.0,12.0,76,0.00,,,0.00,Wunderground v.1.15,2013-02-05 14:16:00,
2013-02-05 08:21:00,49.9,42.3,29.95,West,276,12.0,12.0,75,0.00,,,0.00,Wunderground v.1.15,2013-02-05 14:21:00,
2013-02-05 08:31:00,50.6,42.6,29.96,West,280,12.0,13.0,74,0.00,,,0.00,Wunderground v.1.15,2013-02-05 14:31:00,
2013-02-05 08:36:00,50.8,42.5,29.96,West,277,13.0,14.0,73,0.00,,,0.00,Wunderground v.1.15,2013-02-05 14:36:00,
2013-02-05 08:41:00,51.1,42.7,29.96,WNW,282,13.0,14.0,73,0.00,,,0.00,Wunderground v.1.15,2013-02-05 14:41:00,
2013-02-05 08:46:00,51.4,43.0,29.96,WNW,282,13.0,13.0,73,0.00,,,0.00,Wunderground v.1.15,2013-02-05 14:46:00,
2013-02-05 08:51:00,51.7,43.3,29.97,West,280,13.0,13.0,73,0.00,,,0.00,Wunderground v.1.15,2013-02-05 14:51:00,
2013-02-05 08:56:00,52.2,43.8,29.97,WNW,284,12.0,14.0,73,0.00,,,0.00,Wunderground v.1.15,2013-02-05 14:56:00,
2013-02-05 09:06:00,52.9,43.4,29.97,West,279,12.0,13.0,70,0.00,,,0.00,Wunderground v.1.15,2013-02-05 15:06:00,
2013-02-05 09:11:00,53.4,44.2,29.97,WNW,284,12.0,13.0,71,0.00,,,0.00,Wunderground v.1.15,2013-02-05 15:11:00,
2013-02-05 09:16:00,54.0,44.4,29.97,WNW,288,13.0,13.0,70,0.00,,,0.00,Wunderground v.1.15,2013-02-05 15:16:00,
2013-02-05 09:21:00,54.5,44.9,29.97,WNW,284,13.0,13.0,70,0.00,,,0.00,Wunderground v.1.15,2013-02-05 15:21:00,
2013-02-05 09:26:00,55.0,45.0,29.98,West,278,12.0,13.0,69,0.00,,,0.00,Wunderground v.1.15,2013-02-05 15:26:00,
2013-02-05 09:36:00,55.7,46.1,29.98,WNW,288,13.0,13.0,70,0.00,,,0.00,Wunderground v.1.15,2013-02-05 15:36:00,
2013-02-05 09:41:00,55.9,45.9,29.98,West,281,12.0,13.0,69,0.00,,,0.00,Wunderground v.1.15,2013-02-05 15:41:00,
2013-02-05 09:46:00,55.4,45.8,29.98,WNW,290,12.0,12.0,70,0.00,,,0.00,Wunderground v.1.15,2013-02-05 15:46:00,
2013-02-05 09:51:00,55.5,46.2,29.98,WNW,287,13.0,13.0,71,0.00,,,0.00,Wunderground v.1.15,2013-02-05 15:51:00,
2013-02-05 09:56:00,56.1,46.4,29.98,WNW,293,12.0,13.0,70,0.00,,,0.00,Wunderground v.1.15,2013-02-05 15:56:00,
2013-02-05 10:06:00,56.3,47.0,29.99,WNW,298,10.0,10.0,71,0.00,,,0.00,Wunderground v.1.15,2013-02-05 16:06:00,
2013-02-05 10:11:00,56.4,47.1,29.99,WNW,296,10.0,10.0,71,0.00,,,0.00,Wunderground v.1.15,2013-02-05 16:11:00,
2013-02-05 10:16:00,56.9,47.6,29.99,WNW,297,10.0,10.0,71,0.00,,,0.00,Wunderground v.1.15,2013-02-05 16:16:00,
2013-02-05 10:21:00,57.4,48.1,29.99,WNW,291,9.0,10.0,71,0.00,,,0.00,Wunderground v.1.15,2013-02-05 16:21:00,
2013-02-05 10:26:00,58.0,48.3,29.99,WNW,296,9.0,10.0,70,0.00,,,0.00,Wunderground v.1.15,2013-02-05 16:26:00,
2013-02-05 10:31:00,58.6,48.8,30.00,WNW,288,9.0,10.0,70,0.00,,,0.00,Wunderground v.1.15,2013-02-05 16:31:00,
2013-02-05 10:41:00,59.9,49.3,30.00,WNW,291,7.0,8.0,68,0.00,,,0.00,Wunderground v.1.15,2013-02-05 16:41:00,
2013-02-05 10:46:00,60.5,49.9,30.00,WNW,283,6.0,6.0,68,0.00,,,0.00,Wunderground v.1.15,2013-02-05 16:46:00,
2013-02-05 10:51:00,61.5,50.8,30.00,WNW,286,7.0,7.0,68,0.00,,,0.00,Wunderground v.1.15,2013-02-05 16:51:00,
2013-02-05 10:56:00,62.5,51.4,29.99,NW,308,7.0,8.0,67,0.00,,,0.00,Wunderground v.1.15,2013-02-05 16:56:00,
2013-02-05 11:06:00,63.7,51.7,30.00,NW,306,7.0,7.0,65,0.00,,,0.00,Wunderground v.1.15,2013-02-05 17:06:00,
2013-02-05 11:11:00,64.6,52.1,30.00,WNW,295,7.0,7.0,64,0.00,,,0.00,Wunderground v.1.15,2013-02-05 17:11:00,
2013-02-05 11:16:00,65.1,51.3,30.00,West,278,8.0,10.0,61,0.00,,,0.00,Wunderground v.1.15,2013-02-05 17:16:00,
2013-02-05 11:21:00,65.4,50.7,29.99,WNW,293,9.0,10.0,59,0.00,,,0.00,Wunderground v.1.15,2013-02-05 17:21:00,
2013-02-05 11:26:00,65.4,51.1,29.99,West,275,9.0,9.0,60,0.00,,,0.00,Wunderground v.1.15,2013-02-05 17:26:00,
2013-02-05 11:31:00,65.6,51.3,29.99,NNW,329,8.0,9.0,60,0.00,,,0.00,Wunderground v.1.15,2013-02-05 17:31:00,
2013-02-05 11:36:00,65.7,51.0,29.99,NNW,343,7.0,7.0,59,0.00,,,0.00,Wunderground v.1.15,2013-02-05 17:36:00,
2013-02-05 11:46:00,66.3,50.6,29.99,WNW,286,7.0,8.0,57,0.00,,,0.00,Wunderground v.1.15,2013-02-05 17:46:00,
2013-02-05 11:51:00,66.7,50.5,29.99,WNW,288,8.0,9.0,56,0.00,,,0.00,Wunderground v.1.15,2013-02-05 17:51:00,
2013-02-05 11:56:00,66.9,50.7,29.99,NNW,338,8.0,11.0,56,0.00,,,0.00,Wunderground v.1.15,2013-02-05 17:56:00,
2013-02-05 12:06:00,67.9,51.1,29.98,WNW,303,7.0,7.0,55,0.00,,,0.00,Wunderground v.1.15,2013-02-05 18:06:00,
2013-02-05 12:16:00,68.8,50.5,29.98,NW,317,8.0,8.0,52,0.00,,,0.00,Wunderground v.1.15,2013-02-05 18:16:00,
2013-02-05 12:21:00,69.2,49.8,29.98,WNW,303,8.0,8.0,50,0.00,,,0.00,Wunderground v.1.15,2013-02-05 18:21:00,
2013-02-05 12:26:00,69.4,49.4,29.98,WNW,287,8.0,9.0,49,0.00,,,0.00,Wunderground v.1.15,2013-02-05 18:26:00,
2013-02-05 12:31:00,69.5,49.5,29.98,NW,316,8.0,9.0,49,0.00,,,0.00,Wunderground v.1.15,2013-02-05 18:31:00,
2013-02-05 12:36:00,69.7,47.4,29.97,West,281,7.0,7.0,45,0.00,,,0.00,Wunderground v.1.15,2013-02-05 18:36:00,
2013-02-05 12:41:00,69.8,49.8,29.97,NNW,338,7.0,7.0,49,0.00,,,0.00,Wunderground v.1.15,2013-02-05 18:41:00,
2013-02-05 12:51:00,69.8,48.1,29.96,West,268,7.0,10.0,46,0.00,,,0.00,Wunderground v.1.15,2013-02-05 18:51:00,
2013-02-05 12:56:00,70.5,49.3,29.96,NNW,330,6.0,8.0,47,0.00,,,0.00,Wunderground v.1.15,2013-02-05 18:56:00,
2013-02-05 13:06:00,70.9,47.9,29.96,NW,312,4.0,8.0,44,0.00,,,0.00,Wunderground v.1.15,2013-02-05 19:06:00,
2013-02-05 13:11:00,70.6,47.6,29.95,NW,310,6.0,8.0,44,0.00,,,0.00,Wunderground v.1.15,2013-02-05 19:11:00,
2013-02-05 13:21:00,71.1,46.8,29.95,NW,314,7.0,9.0,42,0.00,,,0.00,Wunderground v.1.15,2013-02-05 19:21:00,
2013-02-05 13:26:00,70.7,47.1,29.94,West,267,7.0,7.0,43,0.00,,,0.00,Wunderground v.1.15,2013-02-05 19:26:00,
2013-02-05 13:31:00,70.6,46.4,29.94,NW,324,7.0,7.0,42,0.00,,,0.00,Wunderground v.1.15,2013-02-05 19:31:00,
2013-02-05 13:36:00,71.1,46.8,29.94,NNW,344,6.0,6.0,42,0.00,,,0.00,Wunderground v.1.15,2013-02-05 19:36:00,
2013-02-05 13:41:00,71.5,46.6,29.94,WSW,248,3.0,6.0,41,0.00,,,0.00,Wunderground v.1.15,2013-02-05 19:41:00,
2013-02-05 13:46:00,71.4,47.1,29.93,WNW,288,4.0,9.0,42,0.00,,,0.00,Wunderground v.1.15,2013-02-05 19:46:00,
2013-02-05 13:56:00,71.6,47.3,29.93,ENE,75,5.0,5.0,42,0.00,,,0.00,Wunderground v.1.15,2013-02-05 19:56:00,
2013-02-05 14:06:00,72.3,47.3,29.93,East,99,2.0,2.0,41,0.00,,,0.00,Wunderground v.1.15,2013-02-05 20:06:00,
2013-02-05 14:11:00,72.9,47.2,29.93,West,263,2.0,2.0,40,0.00,,,0.00,Wunderground v.1.15,2013-02-05 20:11:00,
2013-02-05 14:16:00,72.8,47.7,29.92,West,262,4.0,4.0,41,0.00,,,0.00,Wunderground v.1.15,2013-02-05 20:16:00,
2013-02-05 14:26:00,73.0,47.2,29.92,NW,316,4.0,4.0,40,0.00,,,0.00,Wunderground v.1.15,2013-02-05 20:26:00,
2013-02-05 14:31:00,72.9,46.5,29.92,West,278,4.0,7.0,39,0.00,,,0.00,Wunderground v.1.15,2013-02-05 20:31:00,
2013-02-05 14:36:00,73.0,47.2,29.92,NNE,15,5.0,5.0,40,0.00,,,0.00,Wunderground v.1.15,2013-02-05 20:36:00,
2013-02-05 14:41:00,72.9,47.2,29.92,WSW,238,4.0,5.0,40,0.00,,,0.00,Wunderground v.1.15,2013-02-05 20:41:00,
2013-02-05 14:46:00,73.0,46.6,29.91,WNW,285,3.0,3.0,39,0.00,,,0.00,Wunderground v.1.15,2013-02-05 20:46:00,
2013-02-05 14:51:00,73.2,46.8,29.91,NNE,30,3.0,7.0,39,0.00,,,0.00,Wunderground v.1.15,2013-02-05 20:51:00,
2013-02-05 14:56:00,73.2,46.8,29.91,ESE,104,4.0,4.0,39,0.00,,,0.00,Wunderground v.1.15,2013-02-05 20:56:00,
2013-02-05 15:06:00,73.9,47.4,29.90,NW,304,4.0,14.0,39,0.00,,,0.00,Wunderground v.1.15,2013-02-05 21:06:00,
2013-02-05 15:11:00,73.7,45.8,29.91,North,350,6.0,14.0,37,0.00,,,0.00,Wunderground v.1.15,2013-02-05 21:11:00,
2013-02-05 15:16:00,73.6,45.7,29.91,NNW,337,5.0,5.0,37,0.00,,,0.00,Wunderground v.1.15,2013-02-05 21:16:00,
2013-02-05 15:21:00,73.7,46.5,29.90,NNE,32,3.0,5.0,38,0.00,,,0.00,Wunderground v.1.15,2013-02-05 21:21:00,
2013-02-05 15:31:00,73.9,46.7,29.90,NNE,26,2.0,5.0,38,0.00,,,0.00,Wunderground v.1.15,2013-02-05 21:31:00,
2013-02-05 15:36:00,74.5,45.8,29.90,NNE,21,3.0,4.0,36,0.00,,,0.00,Wunderground v.1.15,2013-02-05 21:36:00,
2013-02-05 15:41:00,74.1,46.2,29.90,NNW,342,3.0,4.0,37,0.00,,,0.00,Wunderground v.1.15,2013-02-05 21:41:00,
2013-02-05 15:46:00,74.1,45.4,29.90,ENE,66,4.0,4.0,36,0.00,,,0.00,Wunderground v.1.15,2013-02-05 21:46:00,
2013-02-05 15:51:00,74.1,45.4,29.90,NNE,29,4.0,4.0,36,0.00,,,0.00,Wunderground v.1.15,2013-02-05 21:51:00,
2013-02-05 15:56:00,74.0,45.3,29.90,WNW,288,4.0,4.0,36,0.00,,,0.00,Wunderground v.1.15,2013-02-05 21:56:00,
2013-02-05 16:06:00,74.2,44.8,29.90,West,269,3.0,3.0,35,0.00,,,0.00,Wunderground v.1.15,2013-02-05 22:06:00,
2013-02-05 16:11:00,74.1,46.2,29.90,NNW,335,3.0,3.0,37,0.00,,,0.00,Wunderground v.1.15,2013-02-05 22:11:00,
2013-02-05 16:16:00,74.2,44.8,29.90,WSW,250,3.0,3.0,35,0.00,,,0.00,Wunderground v.1.15,2013-02-05 22:16:00,
2013-02-05 16:21:00,74.5,45.0,29.90,ENE,73,3.0,4.0,35,0.00,,,0.00,Wunderground v.1.15,2013-02-05 22:21:00,
2013-02-05 16:26:00,74.2,44.8,29.90,NE,49,3.0,3.0,35,0.00,,,0.00,Wunderground v.1.15,2013-02-05 22:26:00,
2013-02-05 16:36:00,74.3,44.9,29.90,NE,53,3.0,4.0,35,0.00,,,0.00,Wunderground v.1.15,2013-02-05 22:36:00,
2013-02-05 16:41:00,74.1,44.7,29.90,NE,46,3.0,4.0,35,0.00,,,0.00,Wunderground v.1.15,2013-02-05 22:41:00,
2013-02-05 16:46:00,74.0,44.6,29.90,NW,307,3.0,3.0,35,0.00,,,0.00,Wunderground v.1.15,2013-02-05 22:46:00,
2013-02-05 16:51:00,74.3,44.9,29.90,NNE,18,2.0,3.0,35,0.00,,,0.00,Wunderground v.1.15,2013-02-05 22:51:00,
2013-02-05 16:56:00,74.6,44.4,29.90,ESE,123,1.0,1.0,34,0.00,,,0.00,Wunderground v.1.15,2013-02-05 22:56:00,
2013-02-05 17:06:00,75.2,44.1,29.90,East,87,1.0,3.0,33,0.00,,,0.00,Wunderground v.1.15,2013-02-05 23:06:00,
2013-02-05 17:11:00,74.6,44.4,29.90,East,80,2.0,3.0,34,0.00,,,0.00,Wunderground v.1.15,2013-02-05 23:11:00,
2013-02-05 17:16:00,74.2,44.0,29.90,East,80,3.0,3.0,34,0.00,,,0.00,Wunderground v.1.15,2013-02-05 23:16:00,
2013-02-05 17:21:00,74.1,43.9,29.90,NE,49,2.0,4.0,34,0.00,,,0.00,Wunderground v.1.15,2013-02-05 23:21:00,
2013-02-05 17:26:00,73.9,43.8,29.91,NNE,29,3.0,3.0,34,0.00,,,0.00,Wunderground v.1.15,2013-02-05 23:26:00,
2013-02-05 17:31:00,73.7,43.6,29.90,NNE,24,3.0,3.0,34,0.00,,,0.00,Wunderground v.1.15,2013-02-05 23:31:00,
2013-02-05 17:36:00,73.5,42.6,29.91,NE,44,3.0,4.0,33,0.00,,,0.00,Wunderground v.1.15,2013-02-05 23:36:00,
2013-02-05 17:41:00,73.3,42.4,29.90,NE,47,4.0,4.0,33,0.00,,,0.00,Wunderground v.1.15,2013-02-05 23:41:00,
2013-02-05 17:46:00,73.1,43.1,29.90,NE,46,3.0,3.0,34,0.00,,,0.00,Wunderground v.1.15,2013-02-05 23:46:00,
2013-02-05 17:51:00,72.6,43.4,29.90,NE,46,3.0,3.0,35,0.00,,,0.00,Wunderground v.1.15,2013-02-05 23:51:00,
2013-02-05 17:56:00,72.3,42.3,29.91,NE,46,3.0,3.0,34,0.00,,,0.00,Wunderground v.1.15,2013-02-05 23:56:00,
2013-02-05 18:06:00,69.8,46.9,29.91,NE,46,5.0,7.0,44,0.00,,,0.00,Wunderground v.1.15,2013-02-06 00:06:00,
2013-02-05 18:11:00,68.5,48.6,29.91,NE,43,6.0,7.0,49,0.00,,,0.00,Wunderground v.1.15,2013-02-06 00:11:00,
2013-02-05 18:16:00,67.6,49.3,29.92,NE,37,6.0,7.0,52,0.00,,,0.00,Wunderground v.1.15,2013-02-06 00:16:00,
2013-02-05 18:21:00,66.9,49.2,29.92,NE,42,6.0,7.0,53,0.00,,,0.00,Wunderground v.1.15,2013-02-06 00:21:00,
2013-02-05 18:26:00,66.4,49.7,29.92,NE,47,6.0,6.0,55,0.00,,,0.00,Wunderground v.1.15,2013-02-06 00:26:00,
2013-02-05 18:31:00,66.0,49.8,29.92,NE,46,6.0,7.0,56,0.00,,,0.00,Wunderground v.1.15,2013-02-06 00:31:00,
2013-02-05 18:41:00,65.4,50.2,29.92,NE,44,7.0,7.0,58,0.00,,,0.00,Wunderground v.1.15,2013-02-06 00:41:00,
2013-02-05 18:46:00,64.8,50.1,29.92,NE,43,7.0,7.0,59,0.00,,,0.00,Wunderground v.1.15,2013-02-06 00:46:00,
2013-02-05 18:51:00,64.5,50.3,29.93,NE,43,7.0,7.0,60,0.00,,,0.00,Wunderground v.1.15,2013-02-06 00:51:00,
2013-02-05 18:56:00,63.9,50.2,29.93,NE,41,6.0,6.0,61,0.00,,,0.00,Wunderground v.1.15,2013-02-06 00:56:00,
2013-02-05 19:06:00,63.0,50.2,29.94,NE,45,5.0,5.0,63,0.00,,,0.00,Wunderground v.1.15,2013-02-06 01:06:00,
2013-02-05 19:16:00,62.6,50.2,29.94,NE,43,5.0,5.0,64,0.00,,,0.00,Wunderground v.1.15,2013-02-06 01:16:00,
2013-02-05 19:21:00,62.5,50.6,29.94,NE,43,5.0,5.0,65,0.00,,,0.00,Wunderground v.1.15,2013-02-06 01:21:00,
2013-02-05 19:26:00,62.1,50.2,29.95,NE,44,5.0,5.0,65,0.00,,,0.00,Wunderground v.1.15,2013-02-06 01:26:00,
2013-02-05 19:31:00,61.9,50.4,29.95,NE,53,4.0,5.0,66,0.00,,,0.00,Wunderground v.1.15,2013-02-06 01:31:00,
2013-02-05 19:36:00,62.1,50.6,29.95,NE,54,4.0,4.0,66,0.00,,,0.00,Wunderground v.1.15,2013-02-06 01:36:00,
2013-02-05 19:41:00,62.1,50.6,29.95,NE,53,4.0,5.0,66,0.00,,,0.00,Wunderground v.1.15,2013-02-06 01:41:00,
2013-02-05 19:46:00,61.6,50.1,29.95,NE,52,5.0,5.0,66,0.00,,,0.00,Wunderground v.1.15,2013-02-06 01:46:00,
2013-02-05 19:51:00,61.3,50.2,29.96,NE,52,5.0,5.0,67,0.00,,,0.00,Wunderground v.1.15,2013-02-06 01:51:00,
2013-02-05 20:01:00,60.9,50.7,29.96,NE,50,4.0,9.0,69,0.00,,,0.00,Wunderground v.1.15,2013-02-06 02:01:00,
2013-02-05 20:11:00,60.7,50.5,29.96,NE,46,4.0,9.0,69,0.00,,,0.00,Wunderground v.1.15,2013-02-06 02:11:00,
2013-02-05 20:21:00,60.4,50.2,29.96,NE,48,5.0,9.0,69,0.00,,,0.00,Wunderground v.1.15,2013-02-06 02:21:00,
2013-02-05 20:26:00,60.1,49.9,29.96,NE,50,6.0,9.0,69,0.00,,,0.00,Wunderground v.1.15,2013-02-06 02:26:00,
2013-02-05 20:31:00,59.8,50.0,29.97,NE,43,6.0,9.0,70,0.00,,,0.00,Wunderground v.1.15,2013-02-06 02:31:00,
2013-02-05 20:41:00,59.7,49.9,29.97,NE,39,5.0,9.0,70,0.00,,,0.00,Wunderground v.1.15,2013-02-06 02:41:00,
2013-02-05 20:46:00,59.2,49.4,29.97,NE,50,5.0,9.0,70,0.00,,,0.00,Wunderground v.1.15,2013-02-06 02:46:00,
2013-02-05 20:51:00,58.9,49.5,29.97,NE,49,5.0,9.0,71,0.00,,,0.00,Wunderground v.1.15,2013-02-06 02:51:00,
2013-02-05 20:56:00,58.6,49.6,29.97,NE,43,5.0,9.0,72,0.00,,,0.00,Wunderground v.1.15,2013-02-06 02:56:00,
2013-02-05 21:01:00,58.7,49.7,29.97,NE,39,5.0,9.0,72,0.00,,,0.00,Wunderground v.1.15,2013-02-06 03:01:00,
2013-02-05 21:06:00,59.0,50.0,29.97,NE,38,5.0,9.0,72,0.00,,,0.00,Wunderground v.1.15,2013-02-06 03:06:00,
2013-02-05 21:11:00,59.0,50.0,29.97,NE,37,5.0,9.0,72,0.00,,,0.00,Wunderground v.1.15,2013-02-06 03:11:00,
2013-02-05 21:21:00,58.8,50.2,29.98,NNE,33,5.0,9.0,73,0.00,,,0.00,Wunderground v.1.15,2013-02-06 03:21:00,
2013-02-05 21:26:00,58.7,50.1,29.98,NE,36,5.0,5.0,73,0.00,,,0.00,Wunderground v.1.15,2013-02-06 03:26:00,
2013-02-05 21:31:00,58.7,50.4,29.98,NNE,33,4.0,9.0,74,0.00,,,0.00,Wunderground v.1.15,2013-02-06 03:31:00,
2013-02-05 21:36:00,58.5,50.2,29.98,NNE,33,3.0,3.0,74,0.00,,,0.00,Wunderground v.1.15,2013-02-06 03:36:00,
2013-02-05 21:41:00,58.4,50.5,29.98,NNE,33,2.0,9.0,75,0.00,,,0.00,Wunderground v.1.15,2013-02-06 03:41:00,
2013-02-05 21:51:00,58.7,50.8,29.98,North,7,2.0,9.0,75,0.00,,,0.00,Wunderground v.1.15,2013-02-06 03:51:00,
2013-02-05 21:56:00,59.0,51.1,29.98,North,11,4.0,9.0,75,0.00,,,0.00,Wunderground v.1.15,2013-02-06 03:56:00,
2013-02-05 22:01:00,59.5,51.6,29.98,NNE,15,4.0,9.0,75,0.00,,,0.00,Wunderground v.1.15,2013-02-06 04:01:00,
2013-02-05 22:06:00,59.6,51.3,29.98,NNE,12,4.0,9.0,74,0.00,,,0.00,Wunderground v.1.15,2013-02-06 04:06:00,
2013-02-05 22:11:00,59.6,51.3,29.98,NNE,25,5.0,9.0,74,0.00,,,0.00,Wunderground v.1.15,2013-02-06 04:11:00,
2013-02-05 22:21:00,58.8,51.2,29.97,NNE,26,6.0,9.0,76,0.00,,,0.00,Wunderground v.1.15,2013-02-06 04:21:00,
2013-02-05 22:26:00,58.9,51.3,29.98,NNE,18,6.0,6.0,76,0.00,,,0.00,Wunderground v.1.15,2013-02-06 04:26:00,
2013-02-05 22:31:00,59.1,51.5,29.98,NNE,16,5.0,9.0,76,0.00,,,0.00,Wunderground v.1.15,2013-02-06 04:31:00,
2013-02-05 22:36:00,59.1,51.5,29.98,NNE,16,4.0,4.0,76,0.00,,,0.00,Wunderground v.1.15,2013-02-06 04:36:00,
2013-02-05 22:41:00,59.1,51.5,29.98,NNE,16,3.0,9.0,76,0.00,,,0.00,Wunderground v.1.15,2013-02-06 04:41:00,
2013-02-05 22:46:00,59.0,51.4,29.98,NE,42,3.0,9.0,76,0.00,,,0.00,Wunderground v.1.15,2013-02-06 04:46:00,
2013-02-05 22:56:00,58.8,51.6,29.97,NE,54,4.0,9.0,77,0.00,,,0.00,Wunderground v.1.15,2013-02-06 04:56:00,
2013-02-05 23:01:00,59.2,52.0,29.97,NE,53,5.0,9.0,77,0.00,,,0.00,Wunderground v.1.15,2013-02-06 05:01:00,
2013-02-05 23:06:00,59.2,51.6,29.98,ENE,77,5.0,5.0,76,0.00,,,0.00,Wunderground v.1.15,2013-02-06 05:06:00,
2013-02-05 23:11:00,59.0,51.4,29.97,East,92,3.0,9.0,76,0.00,,,0.00,Wunderground v.1.15,2013-02-06 05:11:00,
2013-02-05 23:16:00,58.7,51.5,29.98,East,92,2.0,9.0,77,0.00,,,0.00,Wunderground v.1.15,2013-02-06 05:16:00,
2013-02-05 23:21:00,58.7,51.5,29.98,East,89,2.0,9.0,77,0.00,,,0.00,Wunderground v.1.15,2013-02-06 05:21:00,
2013-02-05 23:26:00,58.6,51.4,29.97,East,89,1.0,9.0,77,0.00,,,0.00,Wunderground v.1.15,2013-02-06 05:26:00,
2013-02-05 23:31:00,58.3,51.5,29.98,East,89,1.0,9.0,78,0.00,,,0.00,Wunderground v.1.15,2013-02-06 05:31:00,
2013-02-05 23:36:00,58.1,51.3,29.98,South,183,0.0,9.0,78,0.00,,,0.00,Wunderground v.1.15,2013-02-06 05:36:00,
2013-02-05 23:41:00,58.0,51.2,29.97,ESE,120,1.0,9.0,78,0.00,,,0.00,Wunderground v.1.15,2013-02-06 05:41:00,
2013-02-05 23:46:00,58.3,51.5,29.97,ESE,115,2.0,9.0,78,0.00,,,0.00,Wunderground v.1.15,2013-02-06 05:46:00,
2013-02-05 23:56:00,57.8,51.0,29.98,ESE,119,2.0,2.0,78,0.00,,,0.00,Wunderground v.1.15,2013-02-06 05:56:00,